| time (UTC) | temp C | wind direction | speed KPH | gust KPH | rain 1hr cm | rain 24hr cm | rain mn cm | humidity % | barometer mb |
| 20260503200212 | 15 | 240 | 8.0 | 0.0 | 0.00 | 0.00 | 0.00 | 47 | 1013.0 |
| 20260503191622 | 17 | 50 | 3.2 | 0.0 | 0.00 | 0.00 | 0.00 | 42 | |
| 20260503190218 | 17 | 0 | 1.6 | 0.0 | 0.00 | 0.00 | 0.00 | 42 | 1013.0 |
| 20260503183210 | 17 | 120 | 8.0 | 0.0 | 0.00 | 0.00 | 0.00 | 39 | 1012.0 |
| 20260503181623 | 20 | 110 | 8.0 | 0.0 | 0.00 | 0.00 | 0.00 | 34 | |
| 20260503180213 | 20 | 110 | 9.7 | 0.0 | 0.00 | 0.00 | 0.00 | 34 | 1012.0 |
| 20260503173210 | 21 | 140 | 8.0 | 0.0 | 0.00 | 0.00 | 0.00 | 32 | 1012.0 |
| 20260503171622 | 22 | 150 | 8.0 | 0.0 | 0.00 | 0.00 | 0.00 | 20 | |
| 20260503170218 | 22 | 150 | 8.0 | 0.0 | 0.00 | 0.00 | 0.00 | 20 | 1012.0 |
| 20260503160203 | 23 | 170 | 4.8 | 0.0 | 0.00 | 0.00 | 0.00 | 17 | 1013.0 |
| 20260503150211 | 25 | 180 | 9.7 | 0.0 | 0.00 | 0.00 | 0.00 | 16 | 1013.0 |
| 20260503140210 | 23 | 110 | 16.1 | 0.0 | 0.00 | 0.00 | 0.00 | 20 | 1014.0 |
| 20260503130217 | 23 | 160 | 9.7 | 0.0 | 0.00 | 0.00 | 0.00 | 22 | 1014.0 |
| 20260503120210 | 22 | 0 | 9.7 | 0.0 | 0.00 | 0.00 | 0.00 | 23 | 1015.0 |
| 20260503110213 | 22 | 170 | 9.7 | 0.0 | 0.00 | 0.00 | 0.00 | 25 | 1016.0 |
| 20260503100217 | 22 | 0 | 4.8 | 0.0 | 0.00 | 0.00 | 0.00 | 26 | 1016.0 |
| 20260503090210 | 21 | 170 | 4.8 | 0.0 | 0.00 | 0.00 | 0.00 | 26 | 1017.0 |
| 20260503081621 | 20 | 360 | 3.2 | 0.0 | 0.00 | 0.00 | 0.00 | 28 | |
| 20260503080211 | 20 | 0 | 3.2 | 0.0 | 0.00 | 0.00 | 0.00 | 28 | 1017.0 |
| 20260503071621 | 17 | 110 | 8.0 | 0.0 | 0.00 | 0.00 | 0.00 | 39 | |
| 20260503070212 | 17 | 110 | 4.8 | 0.0 | 0.00 | 0.00 | 0.00 | 39 | 1017.0 |
| 20260503060210 | 13 | 0 | 3.2 | 0.0 | 0.00 | 0.00 | 0.00 | 41 | 1017.0 |
| 20260503051622 | 10 | 120 | 3.2 | 0.0 | 0.00 | 0.00 | 0.00 | 53 | |
| 20260503050210 | 10 | 0 | 3.2 | 0.0 | 0.00 | 0.00 | 0.00 | 53 | 1017.0 |
| 20260503041622 | 7 | 270 | 3.2 | 0.0 | 0.00 | 0.00 | 0.00 | 52 | |
| 20260503040211 | 7 | 0 | 1.6 | 0.0 | 0.00 | 0.00 | 0.00 | 52 | 1017.0 |
| 20260503031620 | 7 | 100 | 8.0 | 0.0 | 0.00 | 0.00 | 0.00 | 52 | |
| 20260503030218 | 7 | 110 | 4.8 | 0.0 | 0.00 | 0.00 | 0.00 | 52 | 1017.0 |
| 20260503021621 | 7 | 0 | 0.0 | 0.0 | 0.00 | 0.00 | 0.00 | 56 | |
| 20260503020210 | 7 | 0 | 0.0 | 0.0 | 0.00 | 0.00 | 0.00 | 52 | 1017.0 |
| 20260503011622 | 10 | 100 | 8.0 | 0.0 | 0.00 | 0.00 | 0.00 | 46 | |
| 20260503010211 | 10 | 100 | 8.0 | 0.0 | 0.00 | 0.00 | 0.00 | 46 | 1017.0 |
| 20260503001622 | 8 | 140 | 3.2 | 0.0 | 0.00 | 0.00 | 0.00 | 49 | |
| 20260503000218 | 8 | 140 | 3.2 | 0.0 | 0.00 | 0.00 | 0.00 | 49 | 1018.0 |
| 20260502231621 | 10 | 120 | 8.0 | 0.0 | 0.00 | 0.00 | 0.00 | 49 | |
| 20260502230216 | 10 | 120 | 4.8 | 0.0 | 0.00 | 0.00 | 0.00 | 49 | 1018.0 |
| 20260502221622 | 12 | 120 | 3.2 | 0.0 | 0.00 | 0.00 | 0.00 | 40 | |
| 20260502220210 | 12 | 120 | 3.2 | 0.0 | 0.00 | 0.00 | 0.00 | 40 | 1018.0 |
| 20260502211622 | 12 | 150 | 3.2 | 0.0 | 0.00 | 0.00 | 0.00 | 40 | |
| 20260502210211 | 12 | 150 | 4.8 | 0.0 | 0.00 | 0.00 | 0.00 | 40 | 1019.0 |
| 20260502201621 | 12 | 110 | 3.2 | 0.0 | 0.00 | 0.00 | 0.00 | 37 |